This is the latest recevied weather packets stored in our database for station/object K4ZZR. If no packets are shown the sender has not sent any weather packets the latest 10 day(s).
| Time | Temp. | Humidity | Pressure | Rain* | Wind** | Luminosity | Snow |
|---|---|---|---|---|---|---|---|
| 1778067096 | 22.78° C | 96% | 1016.2 hPa | 0 mm | - | 70 W/m² | - |
| 1778066792 | 22.78° C | 97% | 1016.5 hPa | 0 mm | - | 61 W/m² | - |
| 1778066490 | 22.22° C | 99% | 1016.2 hPa | 0 mm | - | 55 W/m² | - |
| 1778066188 | 22.22° C | 99% | 1016.3 hPa | 0 mm | - | 46 W/m² | - |
| 1778065885 | 22.22° C | 99% | 1015.9 hPa | 0 mm | - | 39 W/m² | - |
| 1778065582 | 21.67° C | 99% | 1015.8 hPa | 0 mm | - | 35 W/m² | - |
| 1778065280 | 21.67° C | 99% | 1015.8 hPa | 0 mm | - | 27 W/m² | - |
| 1778064976 | 21.67° C | 99% | 1015.8 hPa | 0 mm | - | 20 W/m² | - |
| 1778064673 | 21.11° C | 99% | 1015.7 hPa | 0 mm | - | 13 W/m² | - |
| 1778064372 | 21.11° C | 99% | 1015.7 hPa | 0 mm | - | 8 W/m² | - |
| 1778064069 | 21.67° C | 99% | 1015.9 hPa | 0 mm | - | 4 W/m² | - |
| 1778063766 | 21.67° C | 99% | 1015.6 hPa | 0 mm | - | 2 W/m² | - |
| 1778063463 | 21.11° C | 99% | 1015.4 hPa | 0 mm | - | 1 W/m² | - |
| 1778063161 | 21.11° C | 99% | 1015.5 hPa | 0 mm | - | 0 W/m² | - |
| 1778062858 | 21.11° C | 99% | 1015.4 hPa | 0 mm | - | 0 W/m² | - |
| 1778062555 | 21.11° C | 99% | 1015.4 hPa | 0 mm | - | 0 W/m² | - |
| 1778062251 | 21.11° C | 99% | 1015.3 hPa | 0 mm | - | 0 W/m² | - |
| 1778061950 | 21.11° C | 99% | 1015.6 hPa | 0 mm | - | 0 W/m² | - |
| 1778061648 | 21.11° C | 99% | 1015.4 hPa | 0 mm | - | 0 W/m² | - |
| 1778061346 | 21.11° C | 99% | 1015.4 hPa | 0 mm | - | 0 W/m² | - |
| 1778061042 | 21.11° C | 99% | 1015.6 hPa | 0 mm | - | 0 W/m² | - |
| 1778060740 | 21.11° C | 99% | 1015.4 hPa | 0 mm | - | 0 W/m² | - |
| 1778060438 | 21.11° C | 98% | 1015.4 hPa | 0 mm | - | 0 W/m² | - |
| 1778060136 | 21.11° C | 98% | 1015.1 hPa | 0 mm | - | 0 W/m² | - |
| 1778059833 | 21.11° C | 98% | 1015.2 hPa | 0 mm | - | 0 W/m² | - |
* Rain latest hour (hover to see other rain measurements)
** Current wind speed in m/s (hover to see current wind gust speed)